CW2433 Weather Reports


Display with metric or nautical units.
time (UTC)temp
F
wind
direction
speed
MPH
gust
MPH
rain 1hr
in
rain 24hr
in
rain mn
in
humidity
%
barometer
mb
20260906220509 87 6 8.0 18.0 0.00 0.00 0.00 73 1012.9
20260906220010 87 2 9.0 18.0 0.00 0.00 0.00 72 1012.7
20260906215510 87 0 9.0 18.0 0.00 0.00 0.00 72 1012.5
20260906214510 88 342 9.0 16.0 0.00 0.00 0.00 70 1012.1
20260906214009 88 276 8.0 16.0 0.00 0.00 0.00 69 1012.0
20260906213510 90 301 5.0 20.0 0.00 0.00 0.00 68 1012.0
20260906213010 91 25 10.0 21.0 0.00 0.00 0.00 66 1012.0
20260906212010 94 331 10.0 16.0 0.00 0.00 0.00 60 1011.7
20260906211510 95 273 2.0 5.0 0.00 0.00 0.00 57 1011.5
20260906211010 95 348 1.0 5.0 0.00 0.00 0.00 57 1011.4
20260906210510 95 245 1.0 5.0 0.00 0.00 0.00 57 1011.4
20260906205509 94 242 1.0 6.0 0.00 0.00 0.00 58 1011.1
20260906205010 94 237 1.0 3.0 0.00 0.00 0.00 58 1010.9
20260906204510 94 218 2.0 3.0 0.00 0.00 0.00 58 1010.8
20260906204010 93 182 0.0 3.0 0.00 0.00 0.00 59 1010.8
20260906202510 92 203 1.0 3.0 0.00 0.00 0.00 63 1011.0
20260906202010 92 207 1.0 3.0 0.00 0.00 0.00 62 1011.4
20260906201510 92 180 2.0 3.0 0.00 0.00 0.00 63 1011.5
20260906201010 92 195 1.0 5.0 0.00 0.00 0.00 63 1011.9
20260906200510 92 202 1.0 5.0 0.00 0.00 0.00 62 1012.3
20260906200013 92 164 1.0 3.0 0.00 0.00 0.00 61 1012.5
20260906195510 92 198 1.0 6.0 0.00 0.00 0.00 62 1012.5
20260906195010 92 204 1.0 9.0 0.00 0.00 0.00 61 1012.8
20260906194509 92 164 3.0 9.0 0.00 0.00 0.00 60 1012.9
20260906194009 92 180 1.0 6.0 0.00 0.00 0.00 60 1013.0
20260906193509 92 164 2.0 7.0 0.00 0.00 0.00 62 1013.0
20260906193009 92 178 1.0 9.0 0.00 0.00 0.00 61 1013.0
20260906192508 92 193 2.0 9.0 0.00 0.00 0.00 62 1013.0
20260906192009 92 118 1.0 7.0 0.00 0.00 0.00 63 1013.2
20260906190009 91 150 2.0 3.0 0.00 0.00 0.00 62 1013.5
20260906185509 91 193 1.0 3.0 0.00 0.00 0.00 64 1013.5
20260906184009 91 193 2.0 7.0 0.00 0.00 0.00 65 1013.7
20260906183509 91 142 3.0 7.0 0.00 0.00 0.00 64 1013.8
20260906183009 91 182 2.0 5.0 0.00 0.00 0.00 66 1013.8
20260906182509 90 141 1.0 6.0 0.00 0.00 0.00 66 1013.9
20260906182009 90 223 2.0 6.0 0.00 0.00 0.00 66 1013.9
20260906181509 90 189 2.0 6.0 0.00 0.00 0.00 66 1014.0
20260906180509 89 165 2.0 7.0 0.00 0.00 0.00 67 1014.1
20260906180010 89 204 2.0 9.0 0.00 0.00 0.00 69 1014.1
20260906175509 88 145 2.0 9.0 0.00 0.00 0.00 69 1014.2
20260906175009 88 194 2.0 9.0 0.00 0.00 0.00 71 1014.2
20260906174509 88 159 1.0 10.0 0.00 0.00 0.00 70 1014.3
20260906174009 87 146 3.0 10.0 0.00 0.00 0.00 70 1014.6
20260906173509 87 188 2.0 6.0 0.00 0.00 0.00 73 1014.6
20260906173009 87 177 3.0 6.0 0.00 0.00 0.00 75 1014.5
20260906172509 86 142 1.0 7.0 0.00 0.00 0.00 76 1014.6
20260906172009 86 105 1.0 7.0 0.00 0.00 0.00 76 1014.7
20260906171510 85 128 3.0 6.0 0.00 0.00 0.00 78 1014.8
20260906171009 85 136 2.0 6.0 0.00 0.00 0.00 78 1014.8
20260906170010 84 130 2.0 5.0 0.00 0.00 0.00 79 1015.0
20260906165510 83 153 0.0 3.0 0.00 0.00 0.00 79 1015.1
20260906165010 83 159 0.0 3.0 0.00 0.00 0.00 80 1015.2
20260906164510 83 177 0.0 3.0 0.00 0.00 0.00 81 1015.2
20260906164009 83 176 1.0 5.0 0.00 0.00 0.00 80 1015.3
20260906163510 82 182 2.0 5.0 0.00 0.00 0.00 82 1015.4
20260906163010 82 150 1.0 3.0 0.00 0.00 0.00 82 1015.4
20260906162510 82 130 1.0 3.0 0.00 0.00 0.00 82 1015.4
20260906162010 82 146 1.0 3.0 0.00 0.00 0.00 83 1015.4
20260906161509 82 144 0.0 3.0 0.00 0.00 0.00 82 1015.4
20260906161010 82 140 1.0 3.0 0.00 0.00 0.00 82 1015.4
20260906160510 82 125 1.0 3.0 0.00 0.00 0.00 82 1015.4
20260906160010 81 125 1.0 3.0 0.00 0.00 0.00 83 1015.5
20260906155510 81 30 0.0 2.0 0.00 0.00 0.00 82 1015.7
20260906155010 81 30 1.0 2.0 0.00 0.00 0.00 82 1015.9
20260906154010 81 151 0.0 3.0 0.00 0.00 0.00 83 1015.9
20260906153510 81 151 0.0 3.0 0.00 0.00 0.00 83 1015.9
20260906153010 81 132 1.0 3.0 0.00 0.00 0.00 83 1015.9
20260906152510 81 156 0.0 3.0 0.00 0.00 0.00 83 1015.5
20260906152010 81 150 1.0 5.0 0.00 0.00 0.00 83 1015.2
20260906151510 81 141 2.0 6.0 0.00 0.00 0.00 83 1015.1
20260906151010 81 127 5.0 6.0 0.00 0.00 0.00 83 1015.1
20260906150510 81 134 0.0 6.0 0.00 0.00 0.00 83 1015.1
20260906150009 81 147 1.0 7.0 0.00 0.00 0.00 83 1015.1
20260906145509 81 122 3.0 7.0 0.00 0.00 0.00 83 1015.0
20260906145009 81 110 3.0 7.0 0.00 0.00 0.00 84 1014.9
20260906144509 81 155 1.0 7.0 0.00 0.00 0.00 84 1014.8
20260906143009 80 142 2.0 12.0 0.00 0.00 0.00 84 1015.0
20260906142509 80 111 2.0 8.0 0.00 0.00 0.00 84 1015.0
20260906141509 80 119 3.0 6.0 0.00 0.00 0.00 84 1015.3
20260906140509 80 153 2.0 6.0 0.00 0.00 0.00 84 1015.4
20260906140010 80 136 3.0 7.0 0.00 0.00 0.00 85 1015.4
20260906135009 80 161 1.0 7.0 0.00 0.00 0.00 85 1015.3
20260906134509 80 134 3.0 9.0 0.00 0.00 0.00 85 1015.3
20260906134009 80 130 2.0 9.0 0.00 0.00 0.00 85 1015.3
20260906133509 80 169 2.0 10.0 0.00 0.00 0.00 86 1015.3
20260906133009 79 150 2.0 10.0 0.00 0.00 0.00 86 1015.3
20260906132509 79 118 2.0 12.0 0.00 0.00 0.00 86 1015.2
20260906132009 79 107 5.0 12.0 0.00 0.00 0.00 86 1015.3
20260906131510 79 154 3.0 7.0 0.00 0.00 0.00 86 1015.2
20260906131009 79 140 2.0 6.0 0.00 0.00 0.00 86 1015.3
20260906130509 79 142 2.0 5.0 0.00 0.00 0.00 86 1015.3
20260906130010 79 138 0.0 6.0 0.00 0.00 0.00 86 1015.2
20260906125509 79 153 2.0 6.0 0.00 0.00 0.00 87 1015.1
20260906125009 78 154 2.0 5.0 0.00 0.00 0.00 87 1015.0
20260906124510 78 149 2.0 6.0 0.00 0.00 0.00 87 1014.9
20260906124010 78 309 1.0 6.0 0.00 0.00 0.00 87 1014.8
20260906123509 78 165 1.0 7.0 0.00 0.00 0.00 87 1014.8
20260906123010 78 188 2.0 7.0 0.00 0.00 0.00 87 1014.7
20260906122509 78 144 1.0 5.0 0.00 0.00 0.00 87 1014.7
20260906121510 78 136 3.0 6.0 0.00 0.00 0.00 87 1014.6
20260906121010 78 144 2.0 3.0 0.00 0.00 0.00 87 1014.6
20260906120509 78 143 2.0 3.0 0.00 0.00 0.00 87 1014.5
20260906120009 78 144 1.0 5.0 0.00 0.00 0.00 87 1014.3
20260906114510 78 151 1.0 6.0 0.00 0.00 0.00 87 1014.2
20260906114010 78 142 2.0 6.0 0.00 0.00 0.00 87 1014.2
20260906113010 78 138 1.0 6.0 0.00 0.00 0.00 87 1014.0
20260906112010 78 132 1.0 3.0 0.00 0.00 0.00 87 1014.2
20260906111510 78 153 1.0 3.0 0.00 0.00 0.00 87 1014.2
20260906111010 78 209 1.0 3.0 0.00 0.00 0.00 87 1014.2
20260906110510 78 148 1.0 3.0 0.00 0.00 0.00 87 1014.2
20260906105509 78 178 1.0 3.0 0.00 0.00 0.00 87 1014.1
20260906105010 78 148 1.0 3.0 0.00 0.00 0.00 87 1014.0
20260906104510 78 189 0.0 5.0 0.00 0.00 0.00 87 1013.9
20260906104010 78 189 1.0 5.0 0.00 0.00 0.00 87 1013.9
20260906103510 78 127 1.0 5.0 0.00 0.00 0.00 86 1013.8
20260906103010 78 144 0.0 3.0 0.00 0.00 0.00 86 1013.7
20260906102509 78 151 1.0 3.0 0.00 0.00 0.00 86 1013.7
20260906102009 78 140 1.0 3.0 0.00 0.00 0.00 86 1013.7
20260906101509 78 148 1.0 1.0 0.00 0.00 0.00 86 1013.7
20260906101009 78 141 0.0 3.0 0.00 0.00 0.00 86 1013.6
20260906100509 78 141 0.0 3.0 0.00 0.00 0.00 85 1013.6
20260906100009 78 142 1.0 3.0 0.00 0.00 0.00 85 1013.6
20260906095508 78 156 0.0 2.0 0.00 0.00 0.00 85 1013.6
20260906095009 78 156 0.0 2.0 0.00 0.00 0.00 85 1013.6
20260906094508 78 156 1.0 1.0 0.00 0.00 0.00 85 1013.7
20260906093508 79 156 0.0 2.0 0.00 0.00 0.00 85 1013.7
20260906093009 79 156 0.0 2.0 0.00 0.00 0.00 84 1013.7
20260906092508 79 159 0.0 1.0 0.00 0.00 0.00 84 1013.7
20260906091510 79 159 1.0 1.0 0.00 0.00 0.00 83 1013.7
20260906090508 79 159 0.0 1.0 0.00 0.00 0.00 83 1013.7
20260906090009 79 159 0.0 3.0 0.00 0.00 0.00 83 1013.7
20260906085508 79 159 0.0 3.0 0.00 0.00 0.00 83 1013.7
20260906085009 80 159 0.0 3.0 0.00 0.00 0.00 83 1013.7
20260906084509 80 159 0.0 1.0 0.00 0.00 0.00 83 1013.6
20260906084009 80 159 0.0 2.0 0.00 0.00 0.00 83 1013.6
20260906083509 80 159 0.0 2.0 0.00 0.00 0.00 83 1013.5
20260906083009 80 159 1.0 2.0 0.00 0.00 0.00 83 1013.5
20260906082509 80 196 1.0 2.0 0.00 0.00 0.00 83 1013.5
20260906082009 80 159 0.0 3.0 0.00 0.00 0.00 83 1013.6
20260906081509 80 165 1.0 3.0 0.00 0.00 0.00 83 1013.6
20260906081010 80 142 1.0 3.0 0.00 0.00 0.00 83 1013.6
20260906080509 80 160 0.0 3.0 0.00 0.00 0.00 83 1013.6
20260906080010 80 158 1.0 5.0 0.00 0.00 0.00 83 1013.5
20260906075509 80 132 2.0 5.0 0.00 0.00 0.00 83 1013.3
20260906075009 81 146 1.0 3.0 0.00 0.00 0.00 83 1013.2
20260906074512 81 150 1.0 3.0 0.00 0.00 0.00 82 1013.2
20260906074010 81 144 1.0 3.0 0.00 0.00 0.00 82 1013.2
20260906073510 81 129 2.0 3.0 0.00 0.00 0.00 82 1013.2
20260906073010 81 146 2.0 6.0 0.00 0.00 0.00 82 1013.2
20260906072509 81 144 2.0 6.0 0.00 0.00 0.00 82 1013.3
20260906072009 81 123 2.0 6.0 0.00 0.00 0.00 82 1013.3
20260906071510 81 146 2.0 6.0 0.00 0.00 0.00 82 1013.4
20260906071010 81 138 1.0 3.0 0.00 0.00 0.00 82 1013.6
20260906070510 81 119 1.0 6.0 0.00 0.00 0.00 82 1013.6
20260906070010 81 140 2.0 6.0 0.00 0.00 0.00 82 1013.6
20260906065510 81 152 1.0 5.0 0.00 0.00 0.00 82 1013.6
20260906065010 81 105 2.0 6.0 0.00 0.00 0.00 82 1013.6
20260906063510 82 137 1.0 3.0 0.00 0.00 0.00 82 1013.6
20260906063010 82 162 2.0 3.0 0.00 0.00 0.00 81 1013.7
20260906062510 82 159 1.0 2.0 0.00 0.00 0.00 81 1013.7
20260906061509 82 148 1.0 5.0 0.00 0.00 0.00 81 1013.6
20260906061010 82 122 1.0 5.0 0.00 0.00 0.00 81 1013.7
20260906060510 82 152 2.0 5.0 0.00 0.00 0.00 81 1013.7
20260906060010 82 151 2.0 3.0 0.00 0.00 0.00 81 1013.6
20260906055510 82 136 1.0 3.0 0.00 0.00 0.00 81 1013.6
20260906055010 82 157 1.0 3.0 0.00 0.00 0.00 81 1013.6
20260906054510 82 120 1.0 6.0 0.00 0.00 0.00 81 1013.6
20260906054010 82 111 2.0 6.0 0.00 0.00 0.00 81 1013.6
20260906053509 82 155 1.0 5.0 0.00 0.00 0.00 81 1013.6
20260906052509 82 145 1.0 7.0 0.00 0.00 0.00 81 1013.6
20260906052009 82 125 2.0 7.0 0.00 0.00 0.00 81 1013.6
20260906051508 82 125 1.0 5.0 0.00 0.00 0.00 81 1013.6
20260906051009 82 130 1.0 3.0 0.00 0.00 0.00 81 1013.7
20260906050009 82 126 0.0 6.0 0.00 0.00 0.00 81 1013.8
20260906045511 82 126 0.0 6.0 0.00 0.00 0.00 81 1013.8
20260906045009 82 44 0.0 1.0 0.00 0.00 0.00 80 1013.8
20260906044509 82 44 0.0 1.0 0.00 0.00 0.00 80 1013.8
20260906044009 83 44 0.0 2.0 0.00 0.00 0.00 80 1013.8
20260906043509 83 42 0.0 2.0 0.00 0.00 0.00 80 1013.8
20260906043009 83 186 0.0 2.0 0.00 0.00 0.00 80 1013.8
20260906042508 83 189 0.0 1.0 0.00 0.00 0.00 80 1013.8
20260906042009 83 189 0.0 1.0 0.00 0.00 0.00 79 1013.9
20260906041509 83 230 0.0 1.0 0.00 0.00 0.00 79 1013.8
20260906040509 83 90 0.0 2.0 0.00 0.00 0.00 79 1013.8
20260906040009 83 91 0.0 2.0 0.00 0.00 0.00 79 1013.8
20260906035508 83 294 0.0 2.0 0.00 0.00 0.00 79 1013.7
20260906035009 84 273 0.0 1.0 0.00 0.00 0.00 78 1013.8
20260906034509 84 284 0.0 1.0 0.00 0.00 0.00 78 1013.7
20260906034009 84 286 0.0 2.0 0.00 0.00 0.00 78 1013.6
20260906033509 84 288 0.0 2.0 0.00 0.00 0.00 78 1013.6
20260906033010 84 289 0.0 2.0 0.00 0.00 0.00 77 1013.6
20260906032509 84 138 0.0 3.0 0.00 0.00 0.00 77 1013.6
20260906032009 84 139 0.0 3.0 0.00 0.00 0.00 77 1013.6
20260906030509 85 163 0.0 3.0 0.00 0.00 0.00 77 1013.1
20260906030009 85 74 1.0 3.0 0.00 0.00 0.00 77 1013.1
20260906025508 85 178 1.0 2.0 0.00 0.00 0.00 77 1013.1
20260906025009 85 182 0.0 2.0 0.00 0.00 0.00 77 1013.0
20260906024509 85 171 0.0 2.0 0.00 0.00 0.00 77 1012.9
20260906024009 85 71 0.0 3.0 0.00 0.00 0.00 76 1012.7
20260906023509 85 71 0.0 3.0 0.00 0.00 0.00 76 1012.7
20260906022510 86 175 1.0 3.0 0.00 0.00 0.00 76 1012.6
20260906022009 86 130 0.0 3.0 0.00 0.00 0.00 76 1012.6
20260906021510 86 126 1.0 3.0 0.00 0.00 0.00 75 1012.5
20260906020509 86 65 1.0 5.0 0.00 0.00 0.00 74 1012.4
20260906020009 87 71 2.0 5.0 0.00 0.00 0.00 74 1012.5
20260906015509 87 88 2.0 3.0 0.00 0.00 0.00 74 1012.2
20260906015009 87 77 1.0 3.0 0.00 0.00 0.00 73 1012.2
20260906014510 87 73 0.0 3.0 0.00 0.00 0.00 72 1012.2
20260906014010 88 74 1.0 3.0 0.00 0.00 0.00 72 1012.1
20260906013509 88 73 1.0 6.0 0.00 0.00 0.00 72 1012.1
20260906013010 88 178 0.0 6.0 0.00 0.00 0.00 71 1012.1
20260906012510 88 145 0.0 2.0 0.00 0.00 0.00 71 1012.0
20260906012010 88 72 1.0 3.0 0.00 0.00 0.00 70 1011.9
20260906011509 89 72 1.0 3.0 0.00 0.00 0.00 70 1012.0
20260906011010 89 67 1.0 3.0 0.00 0.00 0.00 69 1011.9
20260906010510 89 55 1.0 2.0 0.00 0.00 0.00 68 1011.8
20260906010010 89 138 0.0 2.0 0.00 0.00 0.00 68 1011.8
20260906005509 90 138 0.0 5.0 0.00 0.00 0.00 68 1011.7
20260906005010 90 137 2.0 5.0 0.00 0.00 0.00 68 1011.7
20260906004510 90 144 0.0 3.0 0.00 0.00 0.00 67 1011.7
20260906004010 90 112 1.0 3.0 0.00 0.00 0.00 67 1011.7
20260906003510 91 112 0.0 3.0 0.00 0.00 0.00 66 1011.7
20260906003010 91 130 1.0 3.0 0.00 0.00 0.00 66 1011.7
20260906001510 91 119 1.0 5.0 0.00 0.00 0.00 65 1011.5
20260906001009 91 130 2.0 3.0 0.00 0.00 0.00 65 1011.5
20260905235508 91 134 3.0 10.0 0.00 0.00 0.00 64 1011.5
20260905235009 91 35 3.0 10.0 0.00 0.00 0.00 64 1011.5
20260905234509 91 129 3.0 9.0 0.00 0.00 0.00 64 1011.5
20260905233509 91 143 3.0 9.0 0.00 0.00 0.00 64 1011.5
20260905233009 92 146 3.0 9.0 0.00 0.00 0.00 64 1011.4
20260905232509 92 129 1.0 7.0 0.00 0.00 0.00 64 1011.5
20260905232009 92 136 2.0 7.0 0.00 0.00 0.00 63 1011.5
20260905231509 92 162 2.0 6.0 0.00 0.00 0.00 62 1011.5
20260905231009 92 137 2.0 6.0 0.00 0.00 0.00 63 1011.5
20260905230509 92 109 3.0 6.0 0.00 0.00 0.00 62 1011.5
20260905225009 92 162 2.0 6.0 0.00 0.00 0.00 62 1011.4
20260905224509 92 120 2.0 6.0 0.00 0.00 0.00 62 1011.4
20260905224010 92 95 1.0 7.0 0.00 0.00 0.00 63 1011.3
20260905223509 92 102 1.0 9.0 0.00 0.00 0.00 62 1011.1
20260905223009 92 152 4.0 10.0 0.00 0.00 0.00 62 1011.0